Regional Weather Roundup
Issued by NWS

Home | Current Version | Previous Version | Graphics & Text | Print | Product List | Glossary On
Versions: 1 2 3 4 5 6 7 8 9 10 11 12 13 14 15 16 17 18 19 20 21 22 23 24 25 26 27 28 29 30 31 32 33 34 35 36 37 38 39 40 41 42 43 44 45 46 47 48 49 50
000
ASUS43 KLOT 300721
RWRIL

ILLINOIS REGIONAL WEATHER ROUNDUP
NATIONAL WEATHER SERVICE CHICAGO/ROMEOVILLE IL
200 AM CDT SUN AUG 30 2015

NOTE: "FAIR" INDICATES FEW OR NO CLOUDS BELOW 12,000 FEET WITH NO
SIGNIFICANT WEATHER AND/OR OBSTRUCTIONS TO VISIBILITY.

* THESE STATIONS ARE NOT UNDER NWS QUALITY CONTROL. THEY ALSO MAY NOT
  REPORT WEATHER SUCH AS PRECIPITATION OR FOG.

ILZ001-002-007-009-015-016-024-300800-
NORTHWEST ILLINOIS

CITY           SKY/WX    TMP DP  RH WIND       PRES   REMARKS
MOLINE         FOG       60  59  96 CALM      30.04S VSB 1/4
STERLING*      CLOUDY    66  64  94 CALM      30.02F
SAVANNA*       CLOUDY    67  63  89 CALM      30.04S
$$

ILZ003-004-008-010-011-017-018-300800-
NORTH CENTRAL ILLINOIS

CITY           SKY/WX    TMP DP  RH WIND       PRES   REMARKS
ROCKFORD       CLOUDY    67  62  84 NE5       30.05F
FREEPORT*      CLOUDY    64  63  97 CALM      30.06F FOG
ROCHELLE*      CLOUDY    65  64  97 CALM      30.05S FOG
DE KALB*       CLOUDY    64  64  97 CALM      30.05S FOG
PERU*          CLOUDY    67  65  94 NE3       30.04S FOG
$$

ILZ005-006-012>014-019>023-300800-
NORTHEAST ILLINOIS

CITY           SKY/WX    TMP DP  RH WIND       PRES   REMARKS
CHICAGO-OHARE  CLOUDY    65  64  97 CALM      30.03S FOG
CHICAGO-MIDWAY CLOUDY    67  64  90 N7        30.02S FOG
AURORA         CLOUDY    66  65  96 N3        30.04S FOG
LANSING*       CLOUDY    66  65  95 N5        30.02S FOG
JOLIET*        FOG       66  66  99 CALM      30.02S VSB<1/4
WAUKEGAN       CLOUDY    63  63 100 CALM      30.03S FOG
DUPAGE AIRPORT CLOUDY    66  63  90 N3        30.03S FOG
KANKAKEE*      CLOUDY    68  67  97 CALM      30.02F FOG
WHEELING       CLOUDY    64  63  96 NW3       30.04S FOG
MORRIS*        FOG       65  64  97 CALM      30.01S VSB 1/4
ROMEOVILLE*    PTCLDY    64  64  99 N5        30.02F FOG
NORTHERLY ISL    N/A     61  60  97 N5          N/A
$$

LMZ740>746-300800-
SOUTHERN LAKE MICHIGAN

STATION/POSITION SKY/WX   TEMP    WIND        PRES    VSBY  WAVE
                          AIR SEA DIR/SP/G                  HT/PER
                          (F)     (DEG/KT/KT) (MB)    (MI)  (FT/S)
SOUTHERN BUOY              68 68     CALM     1015.9F         1
WILMETTE HARBOR            60 57  160/  8/ 10   N/A           2/ 3
HARRISON CRIB              61     360/ 10/ 12   N/A
BURNHAM HARBOR             61     350/  3/  9   N/A
BURNS HARBOR               68     320/  6/  7 1017.3S
MICHIGAN CITY              68     290/  7/  8   N/A
MICHIGAN CITY 6N           68 71  330/  8/ 10   N/A           1/ 2
ST. JOSEPH                 68 70  350/  8/ 10   N/A           0
$$

ILZ025>027-034>036-040-047-049-050-058-095>099-300800-
WEST-CENTRAL ILLINOIS

CITY           SKY/WX    TMP DP  RH WIND       PRES   REMARKS
QUINCY         CLEAR     68  66  93 NE5       30.01S FOG
GALESBURG*     CLOUDY    66  66  98 CALM      30.03F FOG
MACOMB*        CLOUDY    67  67  99 CALM      30.04F FOG
JACKSONVILLE*  CLEAR     71  68  92 CALM      30.01F
PITTSFIELD*    FOG       70  68  94 CALM      30.02F VSB 3/4
$$

ILZ028>032-037-038-041>044-048-051>054-059>061-300800-
CENTRAL ILLINOIS

CITY           SKY/WX    TMP DP  RH WIND       PRES   REMARKS
PONTIAC        PTCLDY    67  66  99 CALM      30.02F FOG
BLOOMINGTON    CLEAR     70  70 100 N3        30.03S FOG
DECATUR        MOCLDY    71  66  84 SW5       30.02F
PEORIA         MOCLDY    71  67  87 NE5       30.02S
LACON*         CLOUDY    68  66  93 CALM      30.02S
LINCOLN*       PTCLDY    71  67  87 CALM      30.01F
SPRINGFIELD    MOCLDY    72  67  84 S5        30.01F
TAYLORVILLE    CLEAR     64  64 100 S3        30.02F
$$

ILZ033-039-045-046-055>057-062-063-300800-
EAST-CENTRAL ILLINOIS

CITY           SKY/WX    TMP DP  RH WIND       PRES   REMARKS
CHAMPAIGN      MOCLDY    67  65  93 SW3       30.03F FOG
RANTOUL*       MOCLDY    69  67  96 CALM      30.02F FOG
MATTOON        PTCLDY    69  64  84 SW5       30.02F
PARIS*         CLOUDY    67  65  96 S5        30.03F
$$

ILZ079-100>102-300800-
SOUTHWEST ILLINOIS

CITY           SKY/WX    TMP DP  RH WIND       PRES   REMARKS
ALTON          MOCLDY    68  67  96 CALM      30.01F
BELLEVILLE     PTCLDY    72  67  85 VRB1      30.01F
CAHOKIA*       MOCLDY    71  67  87 CALM      30.01F
SPARTA*        LGT RAIN  71  68  91 S5        30.03F
$$

ILZ064>066-069>071-074>076-080>082-084>086-088>090-092>094-300800-
SOUTH-CENTRAL ILLINOIS

CITY           SKY/WX    TMP DP  RH WIND       PRES   REMARKS
CARBONDALE     MOCLDY    72  68  87 S6        30.02F
CAIRO*         RAIN      70  70 100 CALM      30.05S
EFFINGHAM*     CLOUDY    69  64  81 CALM      30.04F
MARION         CLOUDY    72  68  88 CALM      30.04F
MT. VERNON     CLOUDY    66  61  82 CALM      30.03F
SALEM*         LGT RAIN  73  64  75 S7        30.03S
METROPOLIS*    CLOUDY    74  73  96 CALM      30.05S
$$

ILZ067-068-072-073-078-083-087-091-300800-
SOUTHEAST ILLINOIS

CITY           SKY/WX    TMP DP  RH WIND       PRES   REMARKS
LAWRENCEVILLE  CLOUDY    71  69  93 N5        30.04S
FLORA*         CLOUDY    68  65  90 SW5       30.03F
FAIRFIELD*     MOCLDY    67  67  99 CALM      30.03F FOG
HARRISBURG*    MOCLDY    71  69  93 CALM      30.04S
ROBINSON*      MOCLDY    67  66  97 SE5       30.04F FOG
CARMI*         MOCLDY    68  68  99 CALM      30.04S FOG
$$

ABBREVIATIONS USED IN REMARKS
   TC - TEMPERATURE IN CELSIUS
  WCI - WIND CHILL INDEX
   HX - HEAT INDEX
  VSB - VISIBILITY
$$




USA.gov is the U.S. government's official web portal to all federal, state and local government web resources and services.